Douglas, WY

1:32 AM MDT on September 24, 2017 (GMT -0600)
Converse County

Weather History for KDGW - March, 2013

Change the Weather History Date:

Friday, March 15, 2013

  Actual Average Record
Temperature  
Mean Temperature 54 °F 35 °F  
Max Temperature 70 °F 49 °F 77 °F (2015)
Min Temperature 37 °F 22 °F 0 °F (2002)
Degree Days  
Heating Degree Days 11 30  
Month to date heating degree days 411 482  
Since 1 July heating degree days 5442 5882  
Cooling Degree Days 0 0  
Month to date cooling degree days 0 0  
Year to date cooling degree days 0 0  
Growing Degree Days 2 (Base 50)    
Moisture  
Dew Point 23 °F    
Average Humidity 42    
Maximum Humidity 70    
Minimum Humidity 13    
Precipitation  
Precipitation 0.00 in 0.03 in 0.08 in (2004)
Month to date precipitation 0.05 0.32  
Year to date precipitation 0.54 1.11  
Sea Level Pressure  
Sea Level Pressure 29.85 in    
Wind  
Wind Speed 13 mph (NNW)    
Max Wind Speed 32 mph    
Max Gust Speed 40 mph    
Visibility 10 miles    
Events      
T = Trace of Precipitation, MM = Missing Value Source: NWS Daily Summary

Daily Weather History Graph

Daily Weather History Graph

Search for Another Location

Airport or City:

Trip Planner

Search our weather history database for the weather conditions in past years. The results will help you decide how hot, cold, wet, or windy it might be!

Date:

Astronomy

Mar. 15, 2013 Rise Set
Actual Time 7:13 AM MDT 7:08 PM MDT
Civil Twilight 6:44 AM MDT 7:36 PM MDT
Nautical Twilight 6:12 AM MDT 8:09 PM MDT
Astronomical Twilight 5:38 AM MDT 8:42 PM MDT
Moon 8:58 AM MDT (3/15) 11:31 PM MDT (3/15)
Length of Visible Light 12h 51m
Length of Day
11h 55m
Waxing Crescent, 16% of the Moon is Illuminated
Mar 15
Waxing Crescent
Mar 19
First Quarter
Mar 27
Full
Apr 2
Last Quarter
Apr 10
New

Hourly Weather History & Observations

Time (MDT) Temp. Windchill Dew Point Humidity Pressure Visibility Wind Dir Wind Speed Gust Speed Precip Events Conditions
12:53 AM 46.0 °F - 28.0 °F 50% 29.94 in 10.0 mi Calm Calm - N/A   Clear
1:53 AM 42.1 °F - 28.9 °F 60% 29.92 in 10.0 mi Calm Calm - N/A   Clear
2:53 AM 37.9 °F - 28.0 °F 68% 29.91 in 10.0 mi Calm Calm - N/A   Clear
3:53 AM 37.0 °F 32.4 °F 28.9 °F 73% 29.88 in 10.0 mi NNW 5.8 mph - N/A   Clear
4:53 AM 43.0 °F 41.3 °F 26.1 °F 51% 29.85 in 10.0 mi WNW 3.5 mph - N/A   Clear
5:53 AM 52.0 °F - 21.9 °F 31% 29.82 in 10.0 mi West 20.7 mph - N/A   Clear
6:53 AM 50.0 °F - 23.0 °F 35% 29.84 in 10.0 mi WNW 12.7 mph - N/A   Clear
7:53 AM 50.0 °F - 23.0 °F 35% 29.87 in 10.0 mi WNW 13.8 mph - N/A   Clear
8:53 AM 52.0 °F - 24.1 °F 34% 29.88 in 10.0 mi Variable 3.5 mph - N/A   Clear
9:53 AM 60.1 °F - 25.0 °F 26% 29.86 in 10.0 mi WNW 16.1 mph - N/A   Clear
10:53 AM 61.0 °F - 21.0 °F 21% 29.85 in 10.0 mi WNW 23.0 mph 32.2 mph N/A   Clear
11:53 AM 68.0 °F - 16.0 °F 14% 29.82 in 10.0 mi WNW 23.0 mph 34.5 mph N/A   Clear
12:53 PM 68.0 °F - 18.0 °F 15% 29.81 in 10.0 mi WNW 25.3 mph 32.2 mph N/A   Clear
1:53 PM 68.0 °F - 16.0 °F 14% 29.80 in 10.0 mi NW 25.3 mph 35.7 mph N/A   Clear
2:53 PM 68.0 °F - 17.1 °F 14% 29.78 in 10.0 mi NNW 25.3 mph 32.2 mph N/A   Clear
3:53 PM 66.0 °F - 16.0 °F 15% 29.78 in 10.0 mi North 12.7 mph 20.7 mph N/A   Scattered Clouds
4:53 PM 64.9 °F - 17.1 °F 16% 29.77 in 10.0 mi NNW 11.5 mph - N/A   Partly Cloudy
5:53 PM 62.1 °F - 19.9 °F 20% 29.77 in 10.0 mi WNW 24.2 mph 39.1 mph N/A   Overcast
6:53 PM 57.9 °F - 23.0 °F 26% 29.80 in 10.0 mi North 3.5 mph - N/A   Mostly Cloudy
7:53 PM 55.9 °F - 21.9 °F 27% 29.84 in 10.0 mi NNE 9.2 mph - N/A   Overcast
8:53 PM 55.0 °F - 23.0 °F 29% 29.85 in 10.0 mi NNE 15.0 mph 21.9 mph N/A   Overcast
9:53 PM 48.9 °F - 26.1 °F 41% 29.87 in 10.0 mi NNE 18.4 mph 27.6 mph N/A   Clear
10:53 PM 45.0 °F 37.1 °F 26.1 °F 48% 29.90 in 10.0 mi NE 19.6 mph 28.8 mph N/A   Mostly Cloudy
11:53 PM 43.0 °F 40.3 °F 26.1 °F 51% 29.94 in 10.0 mi North 4.6 mph - N/A   Mostly Cloudy